#timestamp,LO_Frequency,Hit,StdDev 
1636120815.5,286046998.7,N
1636120835.4,286047000.8,N
1636120855.2,286047000.8,N
1636120875.0,286047000.5,N
1636120875.9,286047000.5,N
1636120895.8,286047000.3,N
1636120915.6,286047000.8,N
1636120935.5,286046998.2,N
1636120955.3,286046998.1,N
1636120975.1,286047001.0,N
1636120995.9,286047001.0,N
1636121015.7,286047000.0,N
1636121035.5,286046999.8,N
1636121055.4,286047000.5,N
1636121075.2,286047000.6,N
1636121095.1,286047000.9,N
1636121096.0,286047000.9,N
1636121115.8,286047002.8,N
1636121135.6,286047002.4,N
1636121155.5,286047001.0,N
1636121175.3,286047000.3,N
1636121195.1,286046998.4,N
1636121215.9,286047001.1,N
1636121235.7,286046998.1,N
1636121255.6,286046998.4,N
1636121275.4,286046998.2,N
1636121295.2,286046998.4,N
1636121315.1,286046996.5,N
1636121316.0,286046996.5,N
1636121335.8,286046998.8,N
1636121355.7,286046998.1,N
1636121375.5,286046998.7,N
1636121395.3,286046998.4,N
1636121415.2,286046998.6,N
1636121435.0,286046998.8,N
1636121435.9,286046998.8,N
1636121455.8,286046998.6,N
1636121475.6,286047001.1,N
1636121495.4,286046998.3,N
1636121515.3,286047001.2,N
1636121535.1,286046998.2,N
1636121555.8,286046998.1,N
1636121575.7,286047001.0,N
1636121595.5,286047002.3,N
1636121615.4,286047001.8,N
1636121635.2,286047002.6,N
1636121655.0,286047002.3,N
1636121655.9,286047002.3,N
1636121675.8,286047002.2,N
1636121695.6,286047001.9,N
1636121715.5,286047002.3,N
1636121735.3,286046999.8,N
1636121755.1,286047002.3,N
1636121775.9,286047002.3,N
1636121795.7,286047000.4,N
1636121815.6,286047000.6,N
1636121835.4,286047000.1,N
1636121855.2,286047000.0,N
1636121875.1,286047002.8,N
1636121876.0,286047002.8,N
1636121895.8,286047002.2,N
1636121915.7,286047001.3,N
1636121935.5,286047003.8,N
1636121955.3,286047003.3,N
1636121975.2,286047003.7,N
1636121995.0,286047003.2,N
1636121995.9,286047003.2,N
1636122015.8,286047002.3,N
1636122035.6,286047002.6,N
1636122055.4,286047002.4,N
1636122075.3,286047000.5,N
1636122095.1,286047001.0,N
1636122115.8,286047000.4,N
1636122135.7,286047000.0,N
1636122155.5,286047000.3,N
1636122175.4,286046999.9,N
1636122195.2,286047001.8,N
1636122215.0,286047002.0,N
1636122215.9,286047002.0,N
1636122235.8,286047001.4,N
1636122255.6,286047001.9,N
1636122275.5,286047001.7,N
1636122295.3,286047004.2,Y
1636122315.1,286047002.6,P
1636122335.9,286047001.9,P
1636122355.7,286047002.8,P
1636122375.6,286047000.0,N
1636122395.4,286047000.1,N
1636122415.2,286047000.1,N
1636122435.1,286046998.2,N
1636122436.0,286046998.2,N
1636122455.8,286046998.3,N
1636122475.7,286046998.3,N
1636122495.5,286046999.3,N
1636122515.3,286046999.5,N
1636122535.2,286046996.5,N
1636122555.0,286046998.6,N
1636122555.9,286046998.6,N
1636122575.7,286046999.3,N
1636122595.6,286046998.4,N
1636122615.4,286046998.3,N
1636122635.3,286046998.1,N
1636122655.1,286047000.7,N
1636122656.0,286047000.7,N
1636122675.8,286047000.8,N
1636122695.7,286046998.6,N
1636122715.5,286046998.2,N
1636122735.3,286047000.5,N
1636122755.2,286046998.9,N
1636122775.0,286046998.5,N
1636122775.9,286046998.5,N
1636122795.8,286046999.3,N
1636122815.6,286046996.9,N
1636122835.4,286046996.9,N
1636122855.3,286046999.1,N
1636122875.1,286046999.3,N
1636122895.8,286046998.9,N
1636122915.7,286046999.5,N
1636122935.5,286046999.2,N
1636122955.4,286046999.1,N
1636122975.2,286046996.6,Y
1636122995.1,286046998.7,P
1636122996.0,286046998.7,P
1636123015.8,286046999.3,P
1636123035.6,286046998.3,Y
1636123055.5,286047000.9,P
1636123075.3,286046998.2,N
1636123095.1,286046998.1,N
1636123115.9,286046998.6,N
1636123135.7,286047001.2,N
1636123155.6,286047001.0,N
1636123175.4,286046999.9,N
1636123195.2,286047002.6,N
1636123215.1,286046999.7,N
1636123216.0,286046999.7,N
1636123235.8,286047001.2,N
1636123255.7,286046998.5,N
1636123275.5,286046998.3,N
1636123295.3,286046996.5,N
1636123315.2,286046999.2,N
1636123335.0,286046998.9,N
1636123335.9,286046998.9,N
1636123355.8,286046999.3,N
1636123375.6,286046997.0,N
1636123395.4,286046996.6,N
1636123415.3,286046997.0,N
1636123435.1,286046998.0,N
1636123455.8,286046999.5,N
1636123475.7,286046999.5,N
1636123495.5,286046997.8,N
1636123515.4,286046997.0,N
1636123535.2,286046999.0,N
1636123555.0,286046997.0,N
1636123555.9,286046997.0,N
1636123575.8,286046997.3,N
1636123595.6,286046995.2,Y
1636123615.4,286046999.5,P
1636123635.3,286046998.7,P
1636123655.1,286046996.9,P
1636123675.9,286046998.7,N
1636123695.7,286046998.1,N
1636123715.5,286047000.5,N
1636123735.4,286047000.5,N
1636123755.2,286047000.8,N
1636123775.1,286046998.2,N
1636123776.0,286046998.2,N
1636123795.8,286047000.6,N
1636123815.6,286047000.0,N
1636123835.5,286047002.8,N
1636123855.3,286047000.6,N
1636123875.1,286046998.6,N
1636123895.9,286046998.5,N
1636123915.7,286047000.2,N
1636123935.6,286047000.4,N
1636123955.4,286047001.1,N
1636123975.2,286047000.7,N
1636123995.1,286047001.2,N
1636123996.0,286047001.2,N
1636124015.8,286046998.1,N
1636124035.7,286047000.5,N
1636124055.5,286047000.5,N
1636124075.3,286047000.7,N
1636124095.2,286047000.9,N
1636124115.0,286047001.0,N
1636124115.9,286047001.0,N
1636124135.7,286046998.6,N
1636124155.6,286046999.4,N
1636124175.4,286046998.7,N
1636124195.3,286046996.6,N
1636124215.1,286046998.8,N
1636124235.9,286046996.9,N
1636124255.7,286046996.6,N
1636124275.5,286046999.4,N
1636124295.4,286046999.6,N
1636124315.2,286046997.0,N
1636124335.0,286046999.2,N
1636124335.9,286046999.2,N
1636124355.8,286046996.9,N
1636124375.6,286046997.2,N
1636124395.5,286046996.7,N
